Location: Fort Wayne
(41.1310°N, 85.1290°W)
Time: 01:48:24
(UTC-04:00)

OPAL - Visible Passes

Search period start: 30 March 2015 00:00
Search period end: 09 April 2015 00:00
Orbit: 743 x 796 km, 100.2° (Epoch: 29 March)

Date Brightness Start Highest point End Pass type
(mag) Time Alt. Az. Time Alt. Az. Time Alt. Az.
30 Mar 10.4 06:43:52 10° E 06:46:51 17° ENE 06:50:01 10° NNE visible
30 Mar 8.1 20:30:19 10° NE 20:34:48 33° E 20:39:22 10° SSE visible
30 Mar 9.4 22:09:17 10° N 22:13:39 30° WNW 22:17:58 10° SW visible
31 Mar 7.9 21:33:31 10° N 21:38:29 64° WNW 21:43:29 10° SSW visible
01 Apr 7.5 20:58:11 10° NNE 21:03:10 59° ESE 21:08:11 10° S visible
01 Apr 10.2 22:38:16 10° NNW 22:41:40 18° WNW 22:44:55 10° WSW visible
02 Apr 10.6 06:37:33 10° E 06:39:51 14° ENE 06:42:23 10° NNE visible
02 Apr 9.0 22:02:00 10° N 22:06:36 36° WNW 22:11:12 10° SW visible
03 Apr 7.6 21:26:21 10° NNE 21:31:25 78° WNW 21:36:30 10° SSW visible
03 Apr 10.8 23:08:33 10° NW 23:09:36 10° WNW 23:10:21 10° WNW visible
04 Apr 7.7 20:51:10 10° NNE 20:56:03 48° ESE 21:00:58 10° S visible
04 Apr 9.9 22:30:50 10° NNW 22:34:39 22° WNW 22:38:24 10° WSW visible
05 Apr 10.9 06:31:35 10° ENE 06:32:52 11° ENE 06:34:26 10° NE visible
05 Apr 8.7 21:54:46 10° N 21:59:34 44° WNW 22:04:22 10° SW visible
06 Apr 7.4 21:19:14 10° NNE 21:24:19 86° ESE 21:29:27 10° SSW visible
06 Apr 10.6 23:00:17 10° NNW 23:02:37 13° WNW 23:04:44 10° W visible
07 Apr 8.0 20:44:11 10° NNE 20:48:53 39° E 20:53:41 10° S visible
07 Apr 9.7 22:23:27 10° N 22:27:38 26° WNW 22:31:46 10° WSW visible
08 Apr 8.3 21:47:33 10° N 21:52:30 54° WNW 21:57:29 10° SW visible
